Wind_Speed
13 13 13 13 14 14 14 13 13 13 14 15 14 14 14 14 14 14 15 15 15 14 14 14 14 14 14 14 15 15 15 15 14 14 14 14 14 15 15 14 14 14 14 14
14 13 13 14 15 15 15 14 14 14 15 16 15 15 15 15 15 15 15 15 15 15 15 14 14 14 14 14 15 14 14 14 14 15 15 15 15 16 15 15 15 15 15 15
14 14 14 15 15 16 15 15 16 16 16 17 17 16 16 15 16 16 15 15 15 15 15 15 14 15 16 15 15 15 15 15 16 16 16 16 16 16 16 16 16 16 16 16
15 15 16 16 16 17 16 16 17 17 18 18 18 18 16 17 17 17 16 15 15 15 15 15 16 16 16 16 16 15 16 16 17 17 17 17 17 17 17 17 17 17 16 16
16 15 16 16 16 17 17 17 18 18 19 20 19 20 18 19 18 17 17 16 16 16 16 16 16 17 17 17 16 16 16 17 18 18 18 18 18 18 18 18 18 18 17 17
15 16 16 17 17 17 17 18 19 19 20 21 19 21 20 19 19 18 18 18 17 17 17 17 17 17 18 18 17 17 18 18 18 19 19 19 19 19 19 19 19 18 18 17
16 16 16 16 17 17 18 18 19 20 21 21 20 22 21 19 19 19 19 18 18 18 18 18 17 18 18 18 18 18 19 18 19 19 20 20 20 20 20 20 19 19 19 18
17 16 16 16 17 17 18 18 19 21 22 22 22 23 21 19 19 19 19 19 19 18 18 18 18 18 19 19 19 20 20 19 20 20 21 21 20 20 20 20 20 20 19 20
18 18 17 17 17 17 18 18 18 20 22 22 23 22 22 20 19 19 20 20 19 19 19 20 19 19 20 20 20 21 20 21 21 21 21 21 21 21 21 21 20 20 20 21
19 19 18 18 19 18 18 18 19 21 22 23 23 22 21 20 20 20 20 20 20 20 20 20 20 21 22 21 21 21 21 21 22 22 22 22 22 21 22 21 21 21 21 21
19 20 20 20 19 19 19 20 20 21 22 23 24 22 21 20 20 21 21 20 20 20 20 21 22 22 22 22 22 23 23 23 23 23 23 24 23 23 23 23 22 22 22 22
20 21 21 20 20 20 20 20 21 21 23 23 25 24 22 21 21 21 21 21 20 20 21 22 23 23 23 23 23 24 24 24 24 24 24 24 24 24 24 24 24 24 24 23
21 21 22 21 21 21 21 21 21 22 23 23 24 24 22 23 22 21 21 21 21 21 21 22 23 23 23 24 24 25 25 25 25 25 25 25 25 25 25 24 24 25 25 24
22 22 22 22 21 22 22 21 21 23 23 24 23 23 23 23 23 22 22 22 22 22 22 23 23 24 24 24 24 24 25 25 26 26 25 25 26 26 26 26 26 26 26 26
23 23 23 22 22 22 22 22 22 23 24 24 23 24 23 24 24 24 23 23 23 23 23 24 24 24 24 25 25 25 25 26 26 26 26 26 26 27 26 26 27 27 27 27
23 24 24 24 23 22 22 21 22 22 23 23 23 23 22 23 24 24 24 24 24 24 24 24 24 24 25 26 27 27 27 27 27 27 27 26 27 27 27 27 27 27 27 27
23 24 24 24 22 23 22 22 23 23 23 24 24 23 23 23 24 24 24 25 24 24 25 25 25 25 26 27 28 28 28 28 28 28 28 28 28 28 29 28 28 28 27 28
22 22 23 24 23 23 22 23 24 24 23 24 24 24 23 24 25 24 25 25 25 26 26 27 27 27 27 28 29 29 29 29 29 29 29 29 29 29 29 29 29 29 29 28
21 22 23 23 24 24 23 23 24 24 23 24 24 24 24 24 25 25 25 26 27 27 27 27 28 28 28 28 28 29 28 28 28 28 29 29 29 29 29 29 30 30 30 29
21 22 23 23 24 25 23 23 23 24 24 24 25 25 25 26 26 25 25 25 26 27 28 28 27 28 28 29 29 28 28 28 28 28 28 28 28 29 29 29 30 30 30 29
22 22 22 23 24 24 23 23 23 23 23 24 24 25 26 27 27 26 26 26 26 26 27 27 28 28 28 29 29 27 27 27 28 28 28 29 29 30 29 29 30 30 30 30
23 23 23 23 24 24 24 24 24 24 24 24 25 26 26 27 28 28 27 26 26 26 27 27 28 28 27 27 27 27 26 26 27 28 28 28 30 30 30 29 29 30 30 30
24 24 24 25 25 25 25 24 25 25 25 25 25 25 26 27 28 28 28 27 27 27 27 28 28 27 26 26 26 26 26 27 26 27 27 28 29 29 29 29 29 29 30 30
26 26 26 26 26 26 26 25 26 26 26 26 27 27 27 27 27 27 27 27 27 27 28 28 28 27 26 26 26 26 26 26 26 26 26 27 27 28 29 29 29 29 29 29
25 26 27 27 27 27 27 27 27 27 27 27 27 28 28 27 27 28 28 28 28 27 27 27 27 27 26 26 26 25 26 27 26 27 26 27 27 28 29 29 29 29 29 30
24 25 26 26 26 27 27 27 28 28 27 28 28 28 27 28 28 29 29 29 28 28 28 27 27 27 26 27 27 26 26 25 25 27 27 27 27 27 28 29 30 30 30 30
Wind_Direction
259 258 259 260 262 264 263 264 262 263 263 264 266 266 267 266 265 266 267 268 269 269 269 270 269 269 269 268 267 268 270 272 274 278 280 282 283 283 283 282 282 282 281 280
260 263 264 264 264 263 264 265 265 263 262 264 267 267 269 267 266 268 269 270 271 271 269 269 269 268 267 269 270 270 271 272 275 277 279 280 283 283 282 281 281 281 280 279
264 264 264 264 264 264 265 267 267 266 264 266 268 267 268 267 266 267 269 271 271 272 270 269 268 266 266 266 269 270 271 272 274 275 277 279 281 282 281 281 281 280 279 278
264 264 263 264 265 267 267 268 267 266 266 267 269 270 267 268 268 269 271 271 273 274 272 271 268 267 265 266 268 269 270 271 272 273 275 277 280 280 281 282 281 280 278 277
267 265 265 266 268 268 269 269 268 268 267 268 269 271 268 269 269 271 272 273 274 272 272 271 268 267 265 264 266 267 270 270 272 274 276 277 279 278 278 279 280 278 277 276
268 267 266 267 266 267 268 268 268 267 267 268 270 272 272 272 274 272 272 274 272 271 272 269 266 266 265 263 263 267 269 270 271 274 275 276 277 277 278 279 278 276 275 275
266 267 268 268 267 267 267 268 269 268 268 270 271 271 275 276 275 274 274 273 272 271 270 267 265 264 265 262 263 269 271 270 271 273 275 276 276 277 278 279 278 275 273 273
266 266 268 270 271 271 270 269 269 272 273 274 273 273 277 277 276 276 276 276 274 274 271 267 264 263 263 262 264 268 271 269 270 272 274 276 276 276 276 277 278 276 273 272
268 267 268 271 273 272 272 271 272 273 274 273 273 275 277 279 278 277 277 275 275 274 271 266 264 264 263 263 265 267 268 269 270 272 274 276 276 276 276 276 277 277 275 273
269 270 270 271 272 271 271 272 272 273 275 275 275 276 279 279 280 279 278 279 278 275 273 268 268 267 264 265 268 268 267 267 270 272 274 275 276 277 278 277 277 276 277 276
269 271 272 271 273 273 272 271 271 273 275 276 276 276 279 280 281 282 283 284 282 278 273 270 268 268 266 268 267 268 268 270 270 271 272 273 274 275 277 278 277 276 276 276
269 272 274 274 275 274 273 272 271 273 275 275 276 276 278 280 280 281 282 281 280 277 273 270 269 268 269 271 269 269 270 271 271 271 271 272 272 273 274 274 275 275 277 276
272 274 278 277 275 274 273 271 270 272 274 275 276 278 278 278 278 277 277 276 276 275 271 270 269 269 270 271 272 272 271 271 271 271 271 273 273 274 273 273 274 275 276 275
274 275 278 278 277 273 271 271 270 271 273 275 276 278 279 278 276 277 275 274 274 275 273 271 271 268 270 271 272 273 271 270 271 272 272 273 274 275 274 273 274 274 273 273
273 274 275 276 276 272 270 269 270 272 274 276 278 278 278 278 277 278 277 275 273 274 273 272 272 272 271 272 272 271 270 269 270 270 271 273 274 274 274 273 272 273 272 270
272 272 273 276 278 275 272 272 273 274 275 276 278 278 278 277 277 277 277 277 274 274 273 274 276 274 273 274 275 272 272 271 270 270 273 274 274 273 273 272 272 271 271 269
272 273 273 273 276 275 275 274 275 275 275 276 277 278 279 278 278 278 278 278 277 275 275 275 276 277 276 275 275 274 274 274 274 273 274 273 273 273 272 271 270 271 270 268
273 272 273 275 276 277 278 276 277 276 275 276 276 277 278 280 281 281 279 279 279 277 278 278 279 279 280 279 277 276 275 275 275 276 276 274 272 272 271 271 270 271 270 269
273 273 273 275 278 279 280 280 279 279 278 278 278 278 280 281 282 283 282 280 281 281 280 280 279 280 281 280 278 277 276 276 277 276 276 276 275 273 272 271 271 271 270 270
274 274 274 276 278 280 282 282 282 282 280 280 280 281 282 282 283 284 283 282 282 283 283 281 280 280 281 281 278 276 277 277 276 275 274 275 276 275 274 272 272 272 271 272
272 274 275 277 278 280 283 283 285 284 282 281 283 284 283 283 286 287 285 283 283 283 283 283 283 283 283 282 280 278 279 278 277 276 274 275 276 276 275 274 273 271 271 272
272 273 274 277 278 279 281 283 284 283 281 281 282 284 285 286 287 290 290 286 284 284 284 285 286 286 284 283 282 281 281 279 278 277 275 275 275 276 275 275 274 273 272 272
272 274 275 276 278 279 279 281 282 281 282 282 282 283 285 287 289 290 290 290 288 286 286 287 287 286 284 282 282 282 281 280 278 277 276 276 275 275 275 275 276 275 274 273
272 273 274 275 277 278 278 279 280 280 281 284 284 283 285 287 287 289 291 291 290 287 287 288 288 288 286 283 282 282 281 280 278 277 277 277 276 276 276 276 277 277 276 274
273 272 273 274 276 277 277 278 279 279 281 283 284 286 284 285 286 287 289 291 291 290 288 287 287 287 286 283 281 281 281 280 279 278 278 278 277 277 278 278 277 277 277 276
271 274 275 276 277 278 279 279 280 280 281 283 283 284 286 286 287 287 288 289 290 289 288 287 287 286 285 284 281 280 282 280 279 279 278 278 277 278 278 278 278 277 278 277
Height
5833 5834 5835 5835 5835 5836 5836 5836 5837 5838 5838 5837 5837 5838 5838 5838 5838 5838 5838 5838 5837 5838 5838 5837 5837 5837 5837 5837 5837 5837 5837 5837 5836 5836 5836 5836 5836 5835 5835 5834 5834 5833 5833 5832
5830 5831 5832 5831 5832 5832 5832 5833 5834 5835 5834 5834 5834 5834 5834 5834 5835 5835 5834 5834 5834 5833 5833 5833 5833 5833 5833 5833 5833 5833 5833 5833 5833 5833 5833 5832 5832 5831 5831 5831 5830 5829 5829 5828
5826 5828 5827 5828 5828 5828 5829 5829 5830 5830 5830 5830 5830 5831 5831 5831 5831 5831 5831 5830 5830 5829 5829 5829 5829 5829 5829 5829 5829 5830 5830 5830 5829 5829 5828 5828 5828 5827 5827 5826 5826 5825 5825 5824
5822 5823 5823 5824 5824 5824 5825 5826 5825 5825 5826 5826 5826 5826 5828 5827 5827 5827 5827 5826 5826 5825 5825 5824 5824 5824 5824 5825 5825 5825 5825 5825 5825 5824 5824 5824 5824 5823 5823 5822 5821 5821 5821 5820
5819 5819 5819 5820 5821 5820 5821 5821 5821 5821 5821 5821 5821 5821 5823 5822 5822 5823 5823 5822 5821 5821 5820 5819 5819 5819 5820 5820 5820 5820 5820 5820 5820 5820 5820 5819 5819 5818 5818 5817 5817 5816 5816 5815
5815 5815 5815 5816 5816 5816 5816 5817 5816 5816 5816 5816 5818 5816 5817 5818 5818 5818 5818 5817 5816 5816 5815 5814 5814 5815 5815 5815 5815 5815 5815 5815 5815 5815 5815 5814 5814 5813 5812 5812 5812 5811 5811 5810
5812 5812 5812 5812 5812 5812 5812 5812 5812 5811 5811 5812 5813 5811 5813 5814 5813 5813 5812 5812 5811 5810 5809 5809 5809 5810 5810 5810 5810 5811 5811 5811 5810 5810 5810 5809 5808 5808 5807 5807 5806 5806 5806 5805
5808 5809 5808 5808 5808 5808 5808 5808 5808 5807 5807 5807 5807 5806 5809 5809 5808 5807 5807 5806 5805 5805 5805 5804 5804 5805 5805 5805 5805 5806 5805 5805 5805 5805 5804 5803 5803 5802 5802 5801 5801 5800 5800 5800
5803 5804 5805 5804 5804 5804 5803 5803 5803 5803 5801 5801 5801 5802 5803 5803 5802 5802 5801 5801 5800 5800 5800 5799 5799 5799 5799 5800 5800 5800 5800 5800 5800 5799 5799 5798 5797 5797 5796 5795 5795 5794 5794 5794
5798 5799 5800 5800 5799 5799 5799 5799 5798 5797 5796 5795 5796 5796 5797 5797 5797 5797 5796 5795 5795 5794 5794 5794 5794 5794 5794 5794 5794 5794 5794 5794 5794 5793 5793 5792 5791 5791 5790 5789 5789 5788 5788 5787
5793 5794 5795 5795 5794 5794 5794 5794 5792 5792 5791 5790 5790 5793 5792 5792 5791 5791 5790 5789 5789 5788 5788 5788 5788 5787 5787 5788 5788 5788 5788 5787 5787 5787 5786 5785 5785 5784 5784 5783 5782 5782 5782 5781
5788 5788 5789 5789 5789 5789 5788 5788 5787 5787 5786 5785 5784 5788 5787 5786 5785 5785 5784 5784 5783 5782 5782 5782 5782 5781 5781 5781 5781 5781 5780 5780 5780 5780 5779 5778 5778 5777 5777 5776 5776 5775 5775 5774
5783 5783 5783 5783 5785 5784 5782 5782 5781 5781 5780 5779 5778 5782 5781 5780 5779 5779 5778 5778 5778 5777 5777 5776 5775 5775 5775 5774 5774 5773 5773 5773 5772 5772 5772 5771 5771 5770 5770 5769 5769 5768 5768 5767
5777 5777 5778 5778 5777 5776 5776 5776 5775 5775 5774 5773 5774 5774 5775 5773 5773 5773 5772 5772 5771 5771 5770 5770 5769 5768 5768 5767 5767 5766 5765 5765 5765 5764 5764 5764 5763 5763 5762 5762 5761 5761 5760 5760
5771 5772 5771 5771 5771 5770 5770 5770 5770 5769 5768 5768 5768 5768 5768 5767 5767 5766 5766 5765 5764 5764 5763 5763 5762 5761 5760 5760 5759 5759 5758 5757 5757 5756 5756 5756 5755 5755 5754 5754 5753 5753 5752 5752
5765 5765 5765 5765 5764 5763 5764 5764 5764 5763 5762 5762 5761 5761 5761 5760 5760 5759 5758 5758 5757 5757 5756 5755 5754 5753 5752 5752 5751 5750 5750 5749 5749 5748 5748 5747 5747 5746 5746 5746 5745 5744 5744 5744
5759 5759 5759 5759 5758 5757 5758 5759 5758 5757 5756 5756 5755 5756 5755 5754 5753 5752 5751 5750 5749 5749 5748 5748 5747 5746 5744 5743 5742 5741 5741 5740 5739 5739 5739 5738 5738 5737 5737 5737 5736 5736 5736 5736
5754 5753 5752 5752 5752 5751 5755 5752 5751 5751 5750 5750 5749 5748 5748 5747 5746 5745 5744 5742 5741 5740 5740 5739 5738 5737 5736 5734 5733 5732 5731 5730 5730 5729 5729 5728 5728 5728 5728 5727 5727 5727 5727 5727
5748 5747 5746 5746 5745 5745 5747 5746 5744 5743 5744 5743 5742 5741 5740 5739 5738 5737 5736 5735 5733 5732 5731 5730 5729 5728 5726 5725 5724 5722 5722 5721 5720 5720 5719 5719 5718 5718 5718 5718 5718 5718 5717 5718
5742 5741 5741 5740 5739 5738 5741 5739 5737 5737 5737 5736 5735 5734 5733 5732 5731 5730 5728 5727 5725 5724 5722 5721 5720 5719 5717 5716 5714 5713 5713 5712 5712 5711 5710 5710 5709 5708 5708 5708 5708 5708 5708 5708
5735 5735 5735 5733 5732 5732 5733 5732 5731 5731 5731 5729 5728 5726 5725 5724 5723 5722 5720 5719 5717 5716 5714 5713 5711 5710 5708 5707 5705 5704 5704 5703 5702 5702 5701 5700 5700 5699 5699 5699 5699 5699 5699 5699
5728 5728 5728 5727 5726 5728 5726 5725 5725 5724 5722 5721 5720 5719 5718 5716 5715 5713 5712 5710 5709 5707 5706 5704 5702 5701 5699 5698 5697 5696 5695 5694 5693 5692 5691 5691 5690 5690 5689 5689 5689 5689 5689 5689
5721 5722 5721 5721 5722 5720 5719 5718 5717 5716 5715 5714 5712 5712 5710 5709 5707 5705 5704 5702 5700 5699 5697 5695 5693 5692 5691 5689 5688 5687 5686 5684 5683 5682 5682 5681 5681 5680 5680 5680 5680 5679 5679 5679
5714 5714 5713 5713 5713 5712 5711 5710 5709 5708 5707 5706 5705 5704 5702 5701 5699 5698 5696 5694 5692 5690 5688 5686 5685 5684 5682 5681 5680 5678 5677 5676 5675 5674 5673 5673 5672 5672 5671 5671 5671 5670 5670 5669
5706 5705 5704 5704 5705 5704 5704 5703 5702 5701 5700 5699 5698 5696 5694 5693 5691 5690 5688 5686 5684 5682 5680 5678 5676 5675 5674 5672 5671 5670 5669 5667 5666 5665 5665 5664 5663 5663 5662 5662 5661 5661 5661 5660
5698 5697 5697 5697 5697 5696 5696 5695 5694 5693 5692 5691 5689 5688 5686 5685 5683 5681 5679 5678 5676 5674 5672 5670 5668 5666 5665 5664 5663 5662 5660 5659 5657 5657 5656 5655 5655 5654 5653 5653 5652 5652 5651 5651